Wind_Speed
17 17 17 17 19 16 14 15 15 16 15 15 14 14 13 12 11 11 10 9 9 8 8 7 7 8 9 10 11 12 12 13 13 12 12 12 11 11 10 10 10 9 9 9 8 8 8 8 8
15 16 16 17 18 14 14 14 15 15 15 14 14 14 14 12 11 10 9 9 8 8 7 7 7 7 8 9 9 11 12 12 12 12 11 11 10 10 9 9 9 9 8 8 8 8 8 7 7
13 14 14 16 15 14 14 14 14 14 14 14 13 13 13 12 11 9 9 8 7 7 6 6 6 7 7 8 9 10 11 11 11 11 10 10 10 9 9 9 8 8 8 7 8 8 7 7 7
12 13 13 14 13 14 14 14 14 14 14 14 13 13 13 12 11 9 8 7 7 6 6 6 6 6 7 8 8 9 11 11 11 11 10 10 9 10 9 8 8 8 8 7 7 7 6 6 6
11 12 12 10 11 12 14 13 13 14 14 14 13 13 13 12 11 9 8 7 6 6 5 5 5 6 6 7 8 8 9 10 10 10 9 9 9 9 9 8 8 8 7 7 7 6 6 6 6
9 10 10 8 9 11 12 13 14 14 14 14 14 14 13 12 11 10 9 8 7 5 5 4 5 5 6 7 7 8 8 9 9 9 9 8 8 8 8 8 7 7 7 7 6 6 5 5 5
7 8 8 8 8 9 11 12 13 14 13 13 14 14 13 12 11 10 9 8 7 5 4 4 4 5 6 6 6 6 7 7 8 8 8 7 7 7 7 7 7 6 6 6 6 5 6 5 5
5 6 6 7 7 7 9 10 12 12 13 13 13 13 13 12 10 9 8 8 7 5 4 3 3 4 4 5 6 6 6 7 7 7 7 6 6 7 6 6 6 6 6 6 5 5 5 5 5
4 5 4 4 5 6 7 8 10 11 11 12 12 13 12 12 10 9 8 7 6 4 3 3 2 3 3 5 5 5 5 6 6 6 6 6 6 6 6 6 6 6 5 5 5 4 4 4 4
3 4 3 3 4 5 6 7 8 9 10 10 11 11 11 11 11 9 8 6 5 4 3 2 2 2 2 4 4 5 5 5 5 6 6 5 5 5 5 5 5 5 6 5 5 4 4 4 4
3 4 3 3 3 3 4 5 6 8 9 9 9 9 10 10 10 9 8 6 5 3 2 2 2 1 2 3 4 4 5 5 5 5 5 5 5 5 5 4 5 5 5 5 4 4 4 4 4
5 4 4 3 2 3 3 4 5 6 7 7 7 8 9 9 9 8 7 6 5 4 3 2 1 1 1 2 3 3 4 4 5 5 5 5 5 5 4 4 4 4 4 4 4 4 3 3 3
7 6 6 4 2 2 2 2 3 4 5 5 6 7 8 9 8 7 6 6 5 4 3 3 2 1 1 2 3 3 4 4 4 4 4 5 5 4 4 4 4 4 4 4 4 3 3 3 2
9 8 8 6 4 3 2 1 1 2 3 4 4 5 7 8 8 7 7 6 5 4 3 3 2 2 1 2 3 3 3 4 4 4 4 4 5 4 4 4 3 3 3 4 4 3 3 2 2
11 10 10 9 7 5 4 3 2 1 2 2 3 4 6 7 7 7 6 6 5 4 4 3 3 3 2 2 2 3 3 4 5 5 5 5 5 4 4 4 3 3 3 4 4 3 2 2 1
14 13 12 12 9 7 5 5 4 3 3 2 3 4 5 6 6 6 6 5 5 5 4 4 4 4 3 3 3 3 3 4 5 6 6 5 5 5 5 5 5 4 3 4 4 3 3 2 2
16 15 14 14 11 9 8 7 7 5 5 4 4 4 4 5 6 5 5 5 5 5 5 5 4 4 3 2 3 3 4 4 4 5 5 6 6 5 5 6 6 5 5 4 4 4 3 3 3
18 17 17 17 13 11 10 9 8 7 6 5 5 5 5 5 5 5 5 5 5 5 6 5 4 4 3 3 3 4 5 5 5 5 6 7 7 6 6 6 7 7 6 6 5 5 5 5 5
20 19 19 19 16 14 12 11 10 9 7 7 7 7 6 6 6 6 6 6 6 6 7 6 5 4 3 4 4 4 5 6 6 7 8 7 8 8 8 8 8 8 7 7 6 7 7 6 6
22 21 21 20 17 15 14 13 12 11 9 9 8 8 8 7 6 7 7 8 7 8 8 8 6 4 4 4 4 4 4 5 6 7 8 9 8 8 8 8 9 9 8 8 9 8 8 8 8
24 23 22 21 19 17 16 15 14 13 12 11 10 10 9 9 8 8 8 8 9 9 10 9 8 7 6 6 7 7 6 6 7 7 8 9 9 10 9 9 9 10 10 10 10 10 10 10 10
26 25 24 22 21 20 18 17 17 15 14 13 12 11 11 11 10 10 10 10 10 11 11 11 10 8 8 8 9 9 8 7 7 7 8 8 9 9 9 8 9 10 10 10 10 11 11 12 12
28 26 25 24 23 23 21 19 19 17 16 15 13 13 13 13 12 12 12 12 12 13 12 12 11 10 10 10 9 9 9 9 8 8 9 10 9 9 9 9 9 9 10 11 11 11 11 12 13
29 27 26 25 25 25 23 21 20 19 16 16 15 15 14 14 14 14 14 14 14 14 13 13 12 12 11 11 10 10 10 11 10 9 10 11 11 10 10 10 10 10 11 12 12 12 13 13 14
29 28 27 27 27 25 24 23 21 20 17 17 17 16 15 15 15 15 14 14 14 14 14 13 12 12 11 12 12 12 11 11 11 11 11 12 12 12 11 11 11 11 12 12 13 14 14 15 15
29 29 28 25 23 24 25 24 22 20 18 18 18 17 16 15 15 15 15 14 14 14 13 12 12 13 12 13 13 13 13 12 12 13 12 12 13 13 13 13 13 13 13 13 14 15 15 15 16
30 30 29 28 26 23 25 23 22 20 18 18 18 18 16 16 16 16 16 14 14 14 13 13 14 14 13 13 13 13 13 12 12 12 12 12 12 13 13 14 14 14 15 15 15 15 16 17 17
31 30 30 29 27 24 24 23 21 20 19 19 19 18 17 17 16 16 16 15 15 14 14 15 16 15 15 14 14 13 14 14 13 13 13 13 14 14 13 13 14 14 15 16 16 16 16 17 18
30 31 30 29 28 23 20 21 21 19 19 19 19 19 18 17 17 17 17 16 16 16 15 16 16 14 15 15 15 14 14 14 14 14 14 14 15 14 14 14 14 15 16 16 16 17 18 18 19
30 30 29 29 28 25 21 20 21 19 19 19 19 19 18 18 17 17 17 17 17 17 16 16 16 15 15 15 15 15 15 15 14 14 14 14 15 16 15 15 16 16 16 16 17 18 19 19 20
Wind_Direction
78 79 77 76 72 73 78 80 79 78 78 79 80 80 80 81 85 90 92 93 97 101 102 103 110 116 120 120 116 113 112 110 107 103 101 100 100 101 101 98 98 100 101 102 101 99 97 97 95
79 79 78 75 74 71 72 74 76 78 78 79 79 79 78 79 80 85 92 96 101 103 102 106 117 122 124 123 118 116 115 113 110 107 105 104 103 105 104 102 102 102 103 103 102 98 98 98 95
82 81 79 74 75 73 71 72 74 75 75 76 77 79 77 75 75 80 91 99 107 106 104 108 117 122 126 123 118 119 118 116 114 112 110 108 109 108 106 104 104 104 105 105 102 100 100 98 97
85 81 79 77 73 69 67 67 70 71 70 70 72 75 76 74 73 77 86 97 107 110 110 111 115 120 122 128 128 122 123 121 119 116 113 111 110 109 109 106 105 105 105 105 104 102 100 99 97
86 81 82 80 74 69 65 64 66 68 69 69 70 72 72 72 71 72 82 92 101 105 110 116 121 124 128 128 128 127 128 126 123 120 117 115 114 115 113 111 108 107 106 105 105 104 104 100 98
92 84 87 84 77 71 64 62 63 65 68 69 69 69 69 71 70 70 76 84 88 93 103 116 123 128 136 134 132 131 132 132 128 125 122 123 121 122 121 118 113 111 111 108 106 106 109 107 102
100 98 96 87 79 69 60 60 63 64 65 67 67 66 65 68 69 70 74 79 82 85 98 112 126 134 138 143 140 140 139 137 135 133 129 129 126 127 127 124 118 116 117 114 109 109 110 110 108
112 109 99 89 79 70 63 62 62 64 63 64 65 64 63 64 68 69 72 77 79 79 86 106 126 138 146 148 147 148 149 143 141 139 136 136 134 130 128 125 121 118 119 119 114 110 110 108 107
131 122 119 102 90 75 67 66 64 62 61 61 62 62 61 60 63 67 70 75 77 78 80 94 119 136 146 156 159 158 154 152 148 144 141 141 139 135 133 133 128 124 122 123 119 116 111 110 110
156 147 152 122 108 90 74 70 66 61 58 58 58 59 59 58 59 61 63 68 71 73 78 85 93 121 149 161 161 163 160 156 155 151 146 142 137 137 138 137 134 128 123 126 125 120 115 112 114
197 186 176 145 120 106 86 78 67 59 57 53 53 53 55 54 55 55 56 58 60 61 63 72 77 96 147 169 171 171 170 170 166 159 157 152 147 143 141 142 140 132 128 131 132 128 121 118 119
221 214 205 185 146 124 101 85 67 58 55 51 48 45 46 47 47 48 49 49 50 51 50 45 59 91 146 179 183 185 185 183 183 179 174 171 160 153 149 146 146 141 135 136 138 139 136 128 125
227 226 226 216 185 155 137 98 65 57 53 50 42 38 36 37 39 39 37 37 38 37 36 34 30 19 212 205 192 189 195 190 184 184 183 180 172 166 163 160 158 151 144 143 146 149 146 148 146
232 234 234 232 219 209 211 211 24 33 43 46 31 26 24 25 28 28 32 33 30 26 20 14 2 341 278 220 210 203 202 199 195 193 189 189 188 183 177 176 177 172 164 161 161 157 153 158 164
234 236 239 238 232 224 228 252 270 326 355 9 7 7 11 12 16 20 20 23 22 17 8 356 340 330 302 246 224 220 214 216 213 205 201 202 203 199 192 195 198 199 191 189 184 179 181 187 186
235 237 242 245 239 234 232 255 261 277 290 306 330 346 354 0 2 10 11 12 10 4 355 344 338 331 308 262 237 224 226 222 222 218 214 212 218 213 211 214 216 220 216 206 206 204 198 212 221
235 237 241 248 244 240 236 238 253 260 268 281 297 316 331 341 345 353 357 358 354 350 341 337 337 337 324 292 260 243 241 227 226 227 222 224 231 230 229 227 228 232 232 222 220 219 214 223 233
237 238 241 247 247 243 240 238 247 251 259 275 281 291 309 319 322 330 337 340 339 341 336 335 338 335 329 315 289 263 253 244 241 239 237 234 236 238 239 238 235 239 238 233 230 232 229 233 240
234 235 239 245 248 245 242 241 243 248 255 266 273 279 284 297 308 312 321 326 326 331 331 324 324 325 324 318 296 276 257 247 244 244 246 244 243 244 245 244 243 245 247 243 240 241 240 241 244
233 235 238 244 245 244 244 243 245 248 253 261 265 271 277 282 292 299 303 312 316 319 320 320 321 323 329 324 308 291 279 253 249 248 250 250 249 248 250 248 247 247 248 248 248 247 247 247 249
232 234 238 241 243 244 245 246 246 249 253 258 264 270 275 278 282 289 293 298 302 303 307 312 311 308 310 312 306 293 279 269 259 256 258 260 258 256 259 254 250 248 249 251 252 252 254 254 254
232 233 236 239 240 243 244 246 251 249 250 255 260 266 271 275 279 285 291 295 295 296 297 303 301 296 298 298 297 293 282 277 277 269 270 269 269 262 256 254 249 248 248 250 252 255 255 257 259
231 232 235 238 239 243 246 244 251 251 249 253 258 264 268 272 275 280 285 289 291 293 292 295 294 291 292 289 288 289 283 282 280 279 270 267 266 260 261 261 255 252 252 252 255 257 257 259 261
230 231 234 237 240 243 246 247 248 251 248 252 257 262 266 267 272 278 280 283 287 290 290 290 289 288 284 283 285 283 281 283 285 289 275 268 264 261 263 265 261 260 259 256 255 259 262 264 265
228 230 233 237 240 243 247 247 248 251 250 253 257 260 261 261 267 275 278 280 284 287 285 283 281 283 282 282 282 279 280 282 283 286 279 270 263 262 265 264 265 265 263 262 262 265 267 267 269
230 230 231 234 241 245 248 247 250 251 252 254 257 257 257 258 265 270 273 277 280 283 282 281 281 280 279 278 282 279 280 279 282 281 277 275 266 263 265 265 266 266 267 268 265 268 269 270 269
228 229 230 233 236 240 250 249 249 250 250 252 253 253 255 258 263 268 269 271 275 279 280 282 287 280 276 274 277 281 278 281 283 283 278 273 269 266 265 269 267 266 266 268 269 270 271 273 271
228 228 229 231 235 239 247 250 249 249 249 250 248 249 253 256 260 264 266 269 271 275 280 281 282 281 274 273 274 279 276 281 282 281 278 274 270 267 265 269 271 271 271 270 270 272 275 276 273
228 228 229 232 235 236 244 252 248 247 247 248 248 247 248 254 258 260 262 265 268 272 277 280 278 278 276 274 272 274 275 278 282 281 279 272 267 267 268 272 274 274 272 271 273 274 277 277 276
227 229 231 233 237 235 234 248 249 246 247 247 246 247 248 251 254 257 258 262 267 271 273 276 276 274 274 273 269 270 274 278 278 278 278 273 266 265 268 269 271 273 275 275 274 274 278 279 278
Height
5912 5912 5912 5912 5913 5914 5912 5911 5909 5908 5907 5906 5905 5905 5904 5905 5905 5907 5904 5903 5903 5903 5902 5903 5903 5903 5903 5903 5903 5903 5903 5903 5903 5903 5904 5904 5904 5904 5905 5905 5905 5906 5906 5907 5907 5907 5907 5907 5907
5914 5914 5915 5915 5917 5917 5915 5913 5911 5910 5909 5908 5907 5906 5906 5906 5905 5905 5904 5904 5905 5904 5904 5904 5904 5904 5904 5904 5904 5904 5904 5904 5904 5905 5905 5905 5905 5906 5906 5906 5907 5907 5907 5908 5908 5908 5908 5908 5908
5916 5916 5918 5918 5919 5918 5917 5915 5913 5912 5911 5910 5909 5908 5908 5907 5907 5906 5906 5906 5906 5906 5905 5905 5905 5905 5905 5905 5905 5905 5905 5906 5906 5906 5906 5906 5907 5907 5907 5908 5908 5908 5909 5909 5909 5909 5909 5910 5910
5918 5919 5920 5922 5920 5919 5918 5917 5915 5913 5912 5911 5910 5910 5909 5908 5908 5908 5907 5907 5907 5907 5907 5907 5907 5907 5906 5906 5906 5906 5907 5907 5907 5907 5907 5907 5908 5908 5908 5909 5909 5909 5910 5910 5910 5911 5911 5911 5911
5920 5921 5923 5923 5922 5921 5920 5918 5916 5915 5914 5913 5912 5911 5910 5909 5909 5909 5908 5908 5908 5908 5908 5908 5908 5908 5907 5907 5907 5907 5908 5908 5908 5908 5908 5909 5909 5909 5909 5910 5910 5911 5911 5911 5911 5911 5912 5912 5912
5922 5923 5926 5925 5924 5923 5921 5920 5918 5917 5916 5915 5914 5912 5911 5911 5910 5910 5909 5909 5909 5909 5909 5909 5909 5909 5908 5908 5908 5909 5909 5909 5909 5909 5909 5909 5910 5910 5910 5911 5911 5911 5912 5912 5912 5912 5913 5913 5913
5923 5924 5925 5926 5925 5924 5923 5921 5920 5919 5917 5916 5915 5914 5913 5912 5911 5911 5911 5910 5910 5910 5910 5910 5910 5910 5909 5909 5909 5910 5910 5910 5910 5910 5910 5910 5910 5911 5911 5912 5912 5912 5913 5913 5913 5913 5913 5913 5913
5923 5925 5926 5926 5926 5925 5924 5923 5921 5920 5919 5918 5916 5915 5914 5913 5913 5912 5912 5912 5912 5912 5911 5911 5911 5910 5910 5910 5910 5910 5911 5911 5911 5911 5911 5911 5911 5911 5912 5912 5913 5913 5913 5913 5914 5914 5914 5914 5914
5923 5926 5926 5926 5926 5926 5925 5924 5923 5921 5920 5919 5917 5916 5916 5914 5914 5913 5913 5913 5913 5913 5912 5912 5912 5911 5911 5911 5911 5911 5911 5911 5911 5912 5911 5912 5912 5912 5912 5913 5913 5913 5914 5914 5914 5914 5915 5915 5915
5923 5925 5925 5926 5926 5926 5925 5924 5924 5923 5921 5920 5919 5918 5917 5916 5915 5914 5914 5914 5913 5913 5913 5913 5912 5912 5911 5911 5911 5911 5911 5911 5912 5912 5912 5912 5913 5913 5913 5914 5914 5914 5914 5915 5915 5915 5915 5915 5915
5922 5923 5924 5925 5925 5925 5925 5925 5924 5923 5923 5922 5921 5920 5918 5917 5916 5916 5915 5915 5914 5914 5913 5913 5912 5912 5912 5911 5911 5911 5912 5912 5912 5913 5913 5913 5913 5913 5914 5914 5914 5914 5915 5915 5915 5915 5916 5916 5916
5921 5922 5922 5924 5925 5925 5925 5925 5925 5924 5924 5923 5922 5921 5919 5918 5917 5917 5916 5915 5915 5914 5914 5913 5913 5912 5912 5912 5912 5912 5912 5912 5912 5913 5913 5913 5913 5914 5914 5914 5915 5915 5915 5916 5916 5916 5916 5916 5916
5919 5920 5921 5922 5924 5924 5925 5925 5925 5925 5924 5923 5922 5921 5920 5919 5918 5917 5917 5916 5915 5914 5914 5913 5913 5912 5912 5912 5912 5912 5912 5912 5912 5913 5913 5913 5914 5914 5914 5915 5915 5915 5916 5916 5916 5916 5916 5917 5917
5918 5919 5920 5921 5923 5924 5924 5925 5925 5925 5924 5923 5922 5922 5921 5920 5919 5918 5917 5916 5915 5915 5914 5913 5913 5912 5912 5912 5912 5912 5912 5912 5912 5913 5913 5914 5914 5914 5915 5915 5915 5916 5916 5916 5916 5916 5917 5917 5917
5915 5917 5918 5920 5921 5922 5924 5925 5925 5924 5924 5923 5922 5922 5921 5920 5919 5918 5917 5916 5916 5915 5914 5914 5913 5912 5912 5911 5911 5912 5911 5912 5912 5912 5913 5913 5914 5914 5915 5915 5915 5915 5916 5916 5916 5916 5916 5917 5917
5913 5915 5917 5918 5920 5921 5924 5925 5924 5924 5923 5923 5922 5922 5921 5920 5919 5918 5918 5917 5916 5915 5914 5913 5913 5912 5911 5911 5911 5911 5911 5911 5911 5912 5912 5913 5914 5914 5914 5915 5915 5915 5916 5916 5916 5916 5917 5917 5917
5910 5913 5915 5916 5917 5919 5921 5923 5923 5923 5923 5922 5922 5921 5921 5920 5919 5918 5918 5917 5916 5915 5914 5913 5912 5912 5911 5911 5910 5910 5910 5910 5911 5911 5911 5912 5913 5913 5914 5914 5915 5915 5915 5915 5916 5916 5916 5917 5917
5908 5910 5912 5913 5915 5917 5919 5920 5921 5921 5922 5921 5921 5921 5920 5920 5919 5918 5917 5916 5916 5915 5914 5912 5911 5911 5910 5910 5909 5909 5909 5909 5909 5910 5910 5911 5911 5912 5913 5913 5914 5914 5914 5915 5915 5915 5916 5916 5916
5904 5907 5909 5910 5912 5914 5916 5918 5919 5919 5920 5920 5920 5920 5919 5919 5918 5918 5917 5916 5915 5914 5913 5912 5911 5910 5910 5909 5909 5908 5908 5908 5908 5909 5909 5909 5910 5911 5911 5912 5912 5913 5913 5914 5914 5914 5915 5915 5915
5900 5903 5905 5907 5909 5911 5913 5915 5916 5917 5918 5918 5918 5918 5918 5918 5917 5917 5916 5915 5914 5913 5912 5911 5910 5909 5909 5908 5908 5907 5907 5907 5907 5907 5908 5908 5908 5909 5909 5910 5911 5911 5912 5912 5913 5913 5913 5914 5914
5896 5899 5901 5903 5906 5908 5911 5913 5914 5915 5915 5916 5917 5917 5916 5916 5916 5916 5915 5914 5913 5912 5911 5910 5909 5909 5908 5907 5907 5906 5906 5905 5905 5906 5906 5907 5907 5907 5907 5908 5908 5909 5910 5910 5911 5911 5912 5912 5912
5891 5894 5897 5899 5902 5904 5908 5910 5911 5912 5913 5914 5914 5914 5914 5914 5914 5914 5913 5913 5912 5911 5910 5909 5908 5907 5906 5906 5905 5905 5904 5904 5904 5904 5904 5905 5905 5905 5905 5906 5906 5907 5908 5908 5909 5909 5910 5910 5910
5886 5889 5893 5895 5898 5901 5903 5907 5909 5908 5909 5911 5912 5912 5912 5912 5912 5912 5911 5911 5910 5909 5908 5907 5906 5905 5905 5904 5903 5903 5902 5902 5902 5902 5902 5902 5903 5903 5903 5903 5904 5905 5905 5906 5906 5907 5907 5907 5907
5880 5885 5888 5891 5894 5897 5899 5902 5905 5905 5906 5908 5909 5909 5909 5909 5909 5909 5909 5908 5907 5906 5905 5905 5904 5903 5902 5902 5901 5901 5900 5900 5899 5899 5899 5900 5900 5900 5900 5901 5901 5902 5903 5903 5904 5904 5904 5904 5905
5876 5881 5884 5887 5889 5892 5894 5897 5900 5900 5902 5904 5905 5905 5905 5906 5906 5906 5906 5905 5904 5904 5903 5902 5901 5901 5900 5899 5899 5898 5898 5897 5896 5896 5896 5896 5897 5898 5898 5898 5899 5899 5900 5900 5901 5901 5901 5901 5901
5871 5876 5881 5884 5887 5889 5889 5892 5895 5896 5898 5899 5900 5901 5902 5902 5903 5903 5903 5902 5902 5901 5900 5899 5899 5898 5897 5897 5896 5896 5895 5894 5893 5893 5893 5893 5894 5895 5895 5896 5896 5896 5896 5897 5897 5897 5898 5898 5898
5865 5869 5875 5878 5882 5885 5885 5887 5890 5891 5893 5894 5896 5897 5898 5899 5899 5900 5899 5899 5899 5898 5897 5897 5896 5895 5895 5894 5893 5893 5892 5892 5891 5891 5891 5891 5891 5892 5892 5893 5893 5893 5893 5893 5894 5894 5894 5894 5894
5860 5864 5868 5872 5876 5880 5882 5883 5886 5887 5888 5890 5891 5892 5893 5894 5895 5896 5896 5896 5896 5895 5895 5894 5893 5892 5891 5891 5891 5890 5890 5890 5889 5889 5888 5888 5889 5889 5889 5890 5890 5890 5890 5890 5890 5890 5890 5890 5889
5854 5859 5863 5867 5871 5876 5879 5881 5880 5882 5884 5885 5887 5888 5889 5890 5891 5891 5892 5892 5892 5892 5892 5891 5890 5889 5889 5888 5888 5888 5888 5887 5886 5886 5885 5885 5885 5886 5886 5886 5886 5886 5886 5886 5886 5886 5886 5885 5885
5849 5853 5858 5862 5866 5870 5875 5879 5875 5877 5879 5880 5882 5883 5885 5886 5887 5887 5888 5888 5888 5888 5888 5887 5886 5886 5885 5884 5885 5885 5885 5884 5883 5883 5882 5882 5882 5882 5882 5883 5882 5882 5882 5882 5882 5882 5881 5881 5880